owner,sensor,date,latitude,longitude,vertical_datum,sea_water_practical_salinity,qcFlag 
DISL,ioos:station:DISL:MHPA:1,2017-04-01T00:00:00Z,30.6671,-87.9365,1.346,0.16,1111122 
DISL,ioos:station:DISL:MHPA:1,2017-04-01T00:30:00Z,30.6671,-87.9365,1.309,0.16,1111122 
DISL,ioos:station:DISL:MHPA:1,2017-04-01T01:00:00Z,30.6671,-87.9365,1.264,0.17,1111122 
DISL,ioos:station:DISL:MHPA:1,2017-04-01T01:30:00Z,30.6671,-87.9365,1.218,0.17,1111122 
DISL,ioos:station:DISL:MHPA:1,2017-04-01T02:00:00Z,30.6671,-87.9365,1.175,0.17,1111122 
DISL,ioos:station:DISL:MHPA:1,2017-04-01T02:30:00Z,30.6671,-87.9365,1.129,0.17,1111122 
DISL,ioos:station:DISL:MHPA:1,2017-04-01T03:00:00Z,30.6671,-87.9365,1.088,0.16,1111122 
DISL,ioos:station:DISL:MHPA:1,2017-04-01T03:30:00Z,30.6671,-87.9365,1.059,0.16,1111122 
DISL,ioos:station:DISL:MHPA:1,2017-04-01T04:00:00Z,30.6671,-87.9365,1.033,0.16,1111122 
DISL,ioos:station:DISL:MHPA:1,2017-04-01T04:30:00Z,30.6671,-87.9365,1.01,0.16,1111122 
DISL,ioos:station:DISL:MHPA:1,2017-04-01T05:00:00Z,30.6671,-87.9365,0.992,0.15,1111122 
DISL,ioos:station:DISL:MHPA:1,2017-04-01T05:30:00Z,30.6671,-87.9365,0.977,0.14,1111122 
DISL,ioos:station:DISL:MHPA:1,2017-04-01T06:00:00Z,30.6671,-87.9365,0.967,0.14,1111122 
DISL,ioos:station:DISL:MHPA:1,2017-04-01T06:30:00Z,30.6671,-87.9365,0.956,0.15,1111122 
DISL,ioos:station:DISL:MHPA:1,2017-04-01T07:00:00Z,30.6671,-87.9365,0.943,0.15,1111122 
DISL,ioos:station:DISL:MHPA:1,2017-04-01T07:30:00Z,30.6671,-87.9365,0.936,0.15,1111122 
DISL,ioos:station:DISL:MHPA:1,2017-04-01T08:00:00Z,30.6671,-87.9365,0.936,0.15,1111122 
DISL,ioos:station:DISL:MHPA:1,2017-04-01T08:30:00Z,30.6671,-87.9365,0.933,0.15,1111122 
DISL,ioos:station:DISL:MHPA:1,2017-04-01T09:00:00Z,30.6671,-87.9365,0.937,0.15,1111122 
DISL,ioos:station:DISL:MHPA:1,2017-04-01T09:30:00Z,30.6671,-87.9365,0.958,0.15,1111122 
DISL,ioos:station:DISL:MHPA:1,2017-04-01T10:00:00Z,30.6671,-87.9365,0.984,0.15,1111122 
DISL,ioos:station:DISL:MHPA:1,2017-04-01T10:30:00Z,30.6671,-87.9365,1.02,0.15,1111122 
DISL,ioos:station:DISL:MHPA:1,2017-04-01T11:00:00Z,30.6671,-87.9365,1.063,0.15,1111122 
DISL,ioos:station:DISL:MHPA:1,2017-04-01T11:30:00Z,30.6671,-87.9365,1.103,0.15,1111122 
DISL,ioos:station:DISL:MHPA:1,2017-04-01T12:00:00Z,30.6671,-87.9365,1.132,0.15,1111122 
DISL,ioos:station:DISL:MHPA:1,2017-04-01T12:30:00Z,30.6671,-87.9365,1.158,0.15,1111122 
DISL,ioos:station:DISL:MHPA:1,2017-04-01T13:00:00Z,30.6671,-87.9365,1.189,0.15,1111122 
DISL,ioos:station:DISL:MHPA:1,2017-04-01T13:30:00Z,30.6671,-87.9365,1.203,0.15,1111122 
DISL,ioos:station:DISL:MHPA:1,2017-04-01T14:00:00Z,30.6671,-87.9365,1.197,0.15,1111122 
DISL,ioos:station:DISL:MHPA:1,2017-04-01T14:30:00Z,30.6671,-87.9365,1.216,0.15,1111122 
DISL,ioos:station:DISL:MHPA:1,2017-04-01T15:00:00Z,30.6671,-87.9365,1.236,0.15,1111122 
DISL,ioos:station:DISL:MHPA:1,2017-04-01T15:30:00Z,30.6671,-87.9365,1.26,0.15,1111122 
DISL,ioos:station:DISL:MHPA:1,2017-04-01T16:00:00Z,30.6671,-87.9365,1.278,0.15,1111122 
DISL,ioos:station:DISL:MHPA:1,2017-04-01T16:30:00Z,30.6671,-87.9365,1.299,0.15,1111122 
DISL,ioos:station:DISL:MHPA:1,2017-04-01T17:00:00Z,30.6671,-87.9365,1.334,0.15,1111122 
DISL,ioos:station:DISL:MHPA:1,2017-04-01T17:30:00Z,30.6671,-87.9365,1.349,0.15,1111122 
DISL,ioos:station:DISL:MHPA:1,2017-04-01T18:00:00Z,30.6671,-87.9365,1.376,0.15,1111122 
DISL,ioos:station:DISL:MHPA:1,2017-04-01T18:30:00Z,30.6671,-87.9365,1.39,0.15,1111122 
DISL,ioos:station:DISL:MHPA:1,2017-04-01T19:00:00Z,30.6671,-87.9365,1.411,0.16,1111122 
DISL,ioos:station:DISL:MHPA:1,2017-04-01T19:30:00Z,30.6671,-87.9365,1.427,0.15,1111122 
DISL,ioos:station:DISL:MHPA:1,2017-04-01T20:00:00Z,30.6671,-87.9365,1.455,0.15,1111122 
DISL,ioos:station:DISL:MHPA:1,2017-04-01T20:30:00Z,30.6671,-87.9365,1.468,0.16,1111122 
DISL,ioos:station:DISL:MHPA:1,2017-04-01T21:00:00Z,30.6671,-87.9365,1.471,0.16,1111122 
DISL,ioos:station:DISL:MHPA:1,2017-04-01T21:30:00Z,30.6671,-87.9365,1.457,0.16,1111122 
DISL,ioos:station:DISL:MHPA:1,2017-04-01T22:00:00Z,30.6671,-87.9365,1.433,0.16,1111122 
DISL,ioos:station:DISL:MHPA:1,2017-04-01T22:30:00Z,30.6671,-87.9365,1.417,0.16,1111122 
DISL,ioos:station:DISL:MHPA:1,2017-04-01T23:00:00Z,30.6671,-87.9365,1.384,0.16,1111122 
DISL,ioos:station:DISL:MHPA:1,2017-04-01T23:30:00Z,30.6671,-87.9365,1.36,0.16,1111122 
DISL,ioos:station:DISL:MHPA:1,2017-04-02T00:00:00Z,30.6671,-87.9365,1.323,0.16,1111122 
DISL,ioos:station:DISL:MHPA:1,2017-04-02T00:30:00Z,30.6671,-87.9365,1.276,0.16,1111122 
DISL,ioos:station:DISL:MHPA:1,2017-04-02T01:00:00Z,30.6671,-87.9365,1.239,0.16,1111122 
DISL,ioos:station:DISL:MHPA:1,2017-04-02T01:30:00Z,30.6671,-87.9365,1.205,0.16,1111122 
DISL,ioos:station:DISL:MHPA:1,2017-04-02T02:00:00Z,30.6671,-87.9365,1.162,0.15,1111122 
DISL,ioos:station:DISL:MHPA:1,2017-04-02T02:30:00Z,30.6671,-87.9365,1.116,0.15,1111122 
DISL,ioos:station:DISL:MHPA:1,2017-04-02T03:00:00Z,30.6671,-87.9365,1.077,0.15,1111122 
DISL,ioos:station:DISL:MHPA:1,2017-04-02T03:30:00Z,30.6671,-87.9365,1.046,0.15,1111122 
DISL,ioos:station:DISL:MHPA:1,2017-04-02T04:00:00Z,30.6671,-87.9365,1.015,0.13,1111122 
DISL,ioos:station:DISL:MHPA:1,2017-04-02T04:30:00Z,30.6671,-87.9365,0.984,0.13,1111122 
DISL,ioos:station:DISL:MHPA:1,2017-04-02T05:00:00Z,30.6671,-87.9365,0.956,0.13,1111122 
DISL,ioos:station:DISL:MHPA:1,2017-04-02T05:30:00Z,30.6671,-87.9365,0.931,0.13,1111122 
DISL,ioos:station:DISL:MHPA:1,2017-04-02T06:00:00Z,30.6671,-87.9365,0.912,0.14,1111122 
DISL,ioos:station:DISL:MHPA:1,2017-04-02T06:30:00Z,30.6671,-87.9365,0.895,0.14,1111122 
DISL,ioos:station:DISL:MHPA:1,2017-04-02T07:00:00Z,30.6671,-87.9365,0.88,0.15,1111122 
DISL,ioos:station:DISL:MHPA:1,2017-04-02T07:30:00Z,30.6671,-87.9365,0.869,0.15,1111122 
DISL,ioos:station:DISL:MHPA:1,2017-04-02T08:00:00Z,30.6671,-87.9365,0.864,0.15,1111122 
DISL,ioos:station:DISL:MHPA:1,2017-04-02T08:30:00Z,30.6671,-87.9365,0.86,0.15,1111122 
DISL,ioos:station:DISL:MHPA:1,2017-04-02T09:00:00Z,30.6671,-87.9365,0.86,0.15,1111122 
DISL,ioos:station:DISL:MHPA:1,2017-04-02T09:30:00Z,30.6671,-87.9365,0.864,0.15,1111122 
DISL,ioos:station:DISL:MHPA:1,2017-04-02T10:00:00Z,30.6671,-87.9365,0.877,0.15,1111122 
DISL,ioos:station:DISL:MHPA:1,2017-04-02T10:30:00Z,30.6671,-87.9365,0.898,0.15,1111122 
DISL,ioos:station:DISL:MHPA:1,2017-04-02T11:00:00Z,30.6671,-87.9365,0.928,0.15,1111122 
DISL,ioos:station:DISL:MHPA:1,2017-04-02T11:30:00Z,30.6671,-87.9365,0.959,0.15,1111122 
DISL,ioos:station:DISL:MHPA:1,2017-04-02T12:00:00Z,30.6671,-87.9365,0.996,0.14,1111122 
DISL,ioos:station:DISL:MHPA:1,2017-04-02T12:30:00Z,30.6671,-87.9365,1.039,0.15,1111122 
DISL,ioos:station:DISL:MHPA:1,2017-04-02T13:00:00Z,30.6671,-87.9365,1.081,0.15,1111122 
DISL,ioos:station:DISL:MHPA:1,2017-04-02T13:30:00Z,30.6671,-87.9365,1.097,0.14,1111122 
DISL,ioos:station:DISL:MHPA:1,2017-04-02T14:00:00Z,30.6671,-87.9365,1.134,0.15,1111122 
DISL,ioos:station:DISL:MHPA:1,2017-04-02T14:30:00Z,30.6671,-87.9365,1.174,0.15,1111122 
DISL,ioos:station:DISL:MHPA:1,2017-04-02T15:00:00Z,30.6671,-87.9365,1.201,0.15,1111122 
DISL,ioos:station:DISL:MHPA:1,2017-04-02T15:30:00Z,30.6671,-87.9365,1.227,0.15,1111122 
DISL,ioos:station:DISL:MHPA:1,2017-04-02T16:00:00Z,30.6671,-87.9365,1.266,0.15,1111122 
DISL,ioos:station:DISL:MHPA:1,2017-04-02T16:30:00Z,30.6671,-87.9365,1.315,0.15,1111122 
DISL,ioos:station:DISL:MHPA:1,2017-04-02T17:00:00Z,30.6671,-87.9365,1.37,0.15,1111122 
DISL,ioos:station:DISL:MHPA:1,2017-04-02T17:30:00Z,30.6671,-87.9365,1.402,0.15,1111122 
DISL,ioos:station:DISL:MHPA:1,2017-04-02T18:00:00Z,30.6671,-87.9365,1.456,0.15,1111122 
DISL,ioos:station:DISL:MHPA:1,2017-04-02T18:30:00Z,30.6671,-87.9365,1.448,0.15,1111122 
DISL,ioos:station:DISL:MHPA:1,2017-04-02T19:00:00Z,30.6671,-87.9365,1.448,0.15,1111122 
DISL,ioos:station:DISL:MHPA:1,2017-04-02T19:30:00Z,30.6671,-87.9365,1.483,0.15,1111122 
DISL,ioos:station:DISL:MHPA:1,2017-04-02T20:00:00Z,30.6671,-87.9365,1.499,0.15,1111122 
DISL,ioos:station:DISL:MHPA:1,2017-04-02T20:30:00Z,30.6671,-87.9365,1.497,0.15,1111122 
DISL,ioos:station:DISL:MHPA:1,2017-04-02T21:00:00Z,30.6671,-87.9365,1.512,0.15,1111122 
DISL,ioos:station:DISL:MHPA:1,2017-04-02T21:30:00Z,30.6671,-87.9365,1.491,0.15,1111122 
DISL,ioos:station:DISL:MHPA:1,2017-04-02T22:00:00Z,30.6671,-87.9365,1.478,0.15,1111122 
DISL,ioos:station:DISL:MHPA:1,2017-04-02T22:30:00Z,30.6671,-87.9365,1.499,0.15,1111122 
DISL,ioos:station:DISL:MHPA:1,2017-04-02T23:00:00Z,30.6671,-87.9365,1.481,0.15,1111122 
DISL,ioos:station:DISL:MHPA:1,2017-04-02T23:30:00Z,30.6671,-87.9365,1.5,0.15,1111122 
DISL,ioos:station:DISL:MHPA:1,2017-04-03T00:00:00Z,30.6671,-87.9365,1.484,0.15,1111122 
DISL,ioos:station:DISL:MHPA:1,2017-04-03T00:30:00Z,30.6671,-87.9365,1.478,0.15,1111122 
DISL,ioos:station:DISL:MHPA:1,2017-04-03T01:00:00Z,30.6671,-87.9365,1.444,0.15,1111122 
DISL,ioos:station:DISL:MHPA:1,2017-04-03T01:30:00Z,30.6671,-87.9365,1.404,0.15,1111122 
DISL,ioos:station:DISL:MHPA:1,2017-04-03T02:00:00Z,30.6671,-87.9365,1.379,0.15,1111122 
DISL,ioos:station:DISL:MHPA:1,2017-04-03T02:30:00Z,30.6671,-87.9365,1.365,0.15,1111122 
DISL,ioos:station:DISL:MHPA:1,2017-04-03T03:00:00Z,30.6671,-87.9365,1.375,0.15,1111122 
DISL,ioos:station:DISL:MHPA:1,2017-04-03T03:30:00Z,30.6671,-87.9365,1.36,0.15,1111122 
DISL,ioos:station:DISL:MHPA:1,2017-04-03T04:00:00Z,30.6671,-87.9365,1.35,0.15,1111122 
DISL,ioos:station:DISL:MHPA:1,2017-04-03T04:30:00Z,30.6671,-87.9365,1.321,0.15,1111122 
DISL,ioos:station:DISL:MHPA:1,2017-04-03T05:00:00Z,30.6671,-87.9365,1.296,0.15,1111122 
DISL,ioos:station:DISL:MHPA:1,2017-04-03T05:30:00Z,30.6671,-87.9365,1.287,0.16,1111122 
DISL,ioos:station:DISL:MHPA:1,2017-04-03T06:00:00Z,30.6671,-87.9365,1.273,0.16,1111122 
DISL,ioos:station:DISL:MHPA:1,2017-04-03T06:30:00Z,30.6671,-87.9365,1.262,0.16,1111122 
DISL,ioos:station:DISL:MHPA:1,2017-04-03T07:00:00Z,30.6671,-87.9365,1.289,0.16,1111122 
DISL,ioos:station:DISL:MHPA:1,2017-04-03T07:30:00Z,30.6671,-87.9365,1.301,0.16,1111122 
DISL,ioos:station:DISL:MHPA:1,2017-04-03T08:00:00Z,30.6671,-87.9365,1.297,0.16,1111122 
DISL,ioos:station:DISL:MHPA:1,2017-04-03T08:30:00Z,30.6671,-87.9365,1.32,0.16,1111122 
DISL,ioos:station:DISL:MHPA:1,2017-04-03T09:00:00Z,30.6671,-87.9365,1.349,0.16,1111122 
DISL,ioos:station:DISL:MHPA:1,2017-04-03T09:30:00Z,30.6671,-87.9365,1.322,0.16,1111122 
DISL,ioos:station:DISL:MHPA:1,2017-04-03T10:00:00Z,30.6671,-87.9365,1.307,0.16,1111122 
DISL,ioos:station:DISL:MHPA:1,2017-04-03T10:30:00Z,30.6671,-87.9365,1.339,0.16,1111122 
DISL,ioos:station:DISL:MHPA:1,2017-04-03T11:00:00Z,30.6671,-87.9365,1.373,0.16,1111122 
DISL,ioos:station:DISL:MHPA:1,2017-04-03T11:30:00Z,30.6671,-87.9365,1.403,0.16,1111122 
DISL,ioos:station:DISL:MHPA:1,2017-04-03T12:00:00Z,30.6671,-87.9365,1.391,0.16,1111122 
DISL,ioos:station:DISL:MHPA:1,2017-04-03T12:30:00Z,30.6671,-87.9365,1.421,0.16,1111122 
DISL,ioos:station:DISL:MHPA:1,2017-04-03T13:00:00Z,30.6671,-87.9365,1.387,0.16,1111122 
DISL,ioos:station:DISL:MHPA:1,2017-04-03T13:30:00Z,30.6671,-87.9365,1.3,0.16,1111122 
DISL,ioos:station:DISL:MHPA:1,2017-04-03T14:00:00Z,30.6671,-87.9365,1.259,0.16,1111122 
DISL,ioos:station:DISL:MHPA:1,2017-04-03T14:30:00Z,30.6671,-87.9365,1.267,0.16,1111122 
DISL,ioos:station:DISL:MHPA:1,2017-04-03T15:00:00Z,30.6671,-87.9365,1.263,0.16,1111122 
DISL,ioos:station:DISL:MHPA:1,2017-04-03T15:30:00Z,30.6671,-87.9365,1.199,0.16,1111122 
DISL,ioos:station:DISL:MHPA:1,2017-04-03T16:00:00Z,30.6671,-87.9365,1.228,0.16,1111122 
DISL,ioos:station:DISL:MHPA:1,2017-04-03T16:30:00Z,30.6671,-87.9365,1.203,0.16,1111122 
DISL,ioos:station:DISL:MHPA:1,2017-04-03T17:00:00Z,30.6671,-87.9365,1.505,0.16,1111122 
DISL,ioos:station:DISL:MHPA:1,2017-04-03T17:30:00Z,30.6671,-87.9365,1.442,0.16,1111122 
DISL,ioos:station:DISL:MHPA:1,2017-04-03T18:00:00Z,30.6671,-87.9365,1.456,0.16,1111122 
DISL,ioos:station:DISL:MHPA:1,2017-04-03T18:30:00Z,30.6671,-87.9365,1.387,0.16,1111122 
DISL,ioos:station:DISL:MHPA:1,2017-04-03T19:00:00Z,30.6671,-87.9365,1.33,0.16,1111122 
DISL,ioos:station:DISL:MHPA:1,2017-04-03T19:30:00Z,30.6671,-87.9365,1.258,0.16,1111122 
DISL,ioos:station:DISL:MHPA:1,2017-04-03T20:00:00Z,30.6671,-87.9365,1.211,0.16,1111122 
DISL,ioos:station:DISL:MHPA:1,2017-04-03T20:30:00Z,30.6671,-87.9365,1.203,0.16,1111122 
DISL,ioos:station:DISL:MHPA:1,2017-04-03T21:00:00Z,30.6671,-87.9365,1.362,0.16,1111122 
DISL,ioos:station:DISL:MHPA:1,2017-04-03T21:30:00Z,30.6671,-87.9365,1.444,0.16,1111122 
DISL,ioos:station:DISL:MHPA:1,2017-04-03T22:00:00Z,30.6671,-87.9365,1.553,0.16,1111122 
DISL,ioos:station:DISL:MHPA:1,2017-04-03T22:30:00Z,30.6671,-87.9365,1.606,0.16,1111122 
DISL,ioos:station:DISL:MHPA:1,2017-04-03T23:00:00Z,30.6671,-87.9365,1.599,0.16,1111122 
DISL,ioos:station:DISL:MHPA:1,2017-04-03T23:30:00Z,30.6671,-87.9365,1.555,0.19,1111122 
DISL,ioos:station:DISL:MHPA:1,2017-04-04T00:00:00Z,30.6671,-87.9365,1.539,0.16,1111122 
DISL,ioos:station:DISL:MHPA:1,2017-04-04T00:30:00Z,30.6671,-87.9365,1.517,0.2,1111122 
DISL,ioos:station:DISL:MHPA:1,2017-04-04T01:00:00Z,30.6671,-87.9365,1.474,0.16,1111122 
DISL,ioos:station:DISL:MHPA:1,2017-04-04T01:30:00Z,30.6671,-87.9365,1.468,0.19,1111122 
DISL,ioos:station:DISL:MHPA:1,2017-04-04T02:00:00Z,30.6671,-87.9365,1.473,0.16,1111122 
DISL,ioos:station:DISL:MHPA:1,2017-04-04T02:30:00Z,30.6671,-87.9365,1.48,0.16,1111122 
DISL,ioos:station:DISL:MHPA:1,2017-04-04T03:00:00Z,30.6671,-87.9365,1.44,0.16,1111122 
DISL,ioos:station:DISL:MHPA:1,2017-04-04T03:30:00Z,30.6671,-87.9365,1.406,0.19,1111122 
DISL,ioos:station:DISL:MHPA:1,2017-04-04T04:00:00Z,30.6671,-87.9365,1.374,0.16,1111122 
DISL,ioos:station:DISL:MHPA:1,2017-04-04T04:30:00Z,30.6671,-87.9365,1.323,0.16,1111122 
DISL,ioos:station:DISL:MHPA:1,2017-04-04T05:00:00Z,30.6671,-87.9365,1.29,0.16,1111122 
DISL,ioos:station:DISL:MHPA:1,2017-04-04T05:30:00Z,30.6671,-87.9365,1.259,0.16,1111122 
DISL,ioos:station:DISL:MHPA:1,2017-04-04T06:00:00Z,30.6671,-87.9365,1.218,0.16,1111122 
DISL,ioos:station:DISL:MHPA:1,2017-04-04T06:30:00Z,30.6671,-87.9365,1.185,0.16,1111122 
DISL,ioos:station:DISL:MHPA:1,2017-04-04T07:00:00Z,30.6671,-87.9365,1.156,0.16,1111122 
DISL,ioos:station:DISL:MHPA:1,2017-04-04T07:30:00Z,30.6671,-87.9365,1.14,0.16,1111122 
DISL,ioos:station:DISL:MHPA:1,2017-04-04T08:00:00Z,30.6671,-87.9365,1.122,0.16,1111122 
DISL,ioos:station:DISL:MHPA:1,2017-04-04T08:30:00Z,30.6671,-87.9365,1.091,0.16,1111122 
DISL,ioos:station:DISL:MHPA:1,2017-04-04T09:00:00Z,30.6671,-87.9365,1.062,0.16,1111122 
DISL,ioos:station:DISL:MHPA:1,2017-04-04T09:30:00Z,30.6671,-87.9365,1.04,0.16,1111122 
DISL,ioos:station:DISL:MHPA:1,2017-04-04T10:00:00Z,30.6671,-87.9365,1.024,0.15,1111122 
DISL,ioos:station:DISL:MHPA:1,2017-04-04T11:00:00Z,30.6671,-87.9365,1.005,0.15,1111122 
DISL,ioos:station:DISL:MHPA:1,2017-04-04T11:30:00Z,30.6671,-87.9365,1.002,0.14,1111122 
DISL,ioos:station:DISL:MHPA:1,2017-04-04T12:00:00Z,30.6671,-87.9365,0.999,0.15,1111122 
DISL,ioos:station:DISL:MHPA:1,2017-04-04T12:30:00Z,30.6671,-87.9365,0.999,0.15,1111122 
DISL,ioos:station:DISL:MHPA:1,2017-04-04T13:00:00Z,30.6671,-87.9365,1.014,0.15,1111122 
DISL,ioos:station:DISL:MHPA:1,2017-04-04T13:30:00Z,30.6671,-87.9365,1.04,0.15,1111122 
DISL,ioos:station:DISL:MHPA:1,2017-04-04T14:00:00Z,30.6671,-87.9365,1.066,0.15,1111122 
DISL,ioos:station:DISL:MHPA:1,2017-04-04T15:00:00Z,30.6671,-87.9365,1.143,0.15,1111122 
DISL,ioos:station:DISL:MHPA:1,2017-04-04T15:30:00Z,30.6671,-87.9365,1.198,0.15,1111122 
DISL,ioos:station:DISL:MHPA:1,2017-04-04T16:00:00Z,30.6671,-87.9365,1.223,0.15,1111122 
DISL,ioos:station:DISL:MHPA:1,2017-04-04T16:30:00Z,30.6671,-87.9365,1.275,0.15,1111122 
DISL,ioos:station:DISL:MHPA:1,2017-04-04T17:00:00Z,30.6671,-87.9365,1.298,0.15,1111122 
DISL,ioos:station:DISL:MHPA:1,2017-04-04T17:30:00Z,30.6671,-87.9365,1.321,0.15,1111122 
DISL,ioos:station:DISL:MHPA:1,2017-04-04T18:00:00Z,30.6671,-87.9365,1.343,0.15,1111122 
DISL,ioos:station:DISL:MHPA:1,2017-04-04T18:30:00Z,30.6671,-87.9365,1.365,0.15,1111122 
DISL,ioos:station:DISL:MHPA:1,2017-04-04T19:00:00Z,30.6671,-87.9365,1.421,0.15,1111122 
DISL,ioos:station:DISL:MHPA:1,2017-04-04T19:30:00Z,30.6671,-87.9365,1.465,0.15,1111122 
DISL,ioos:station:DISL:MHPA:1,2017-04-04T20:00:00Z,30.6671,-87.9365,1.484,0.15,1111122 
DISL,ioos:station:DISL:MHPA:1,2017-04-04T20:30:00Z,30.6671,-87.9365,1.515,0.15,1111122 
DISL,ioos:station:DISL:MHPA:1,2017-04-04T21:00:00Z,30.6671,-87.9365,1.534,0.15,1111122 
DISL,ioos:station:DISL:MHPA:1,2017-04-04T21:30:00Z,30.6671,-87.9365,1.542,0.15,1111122 
DISL,ioos:station:DISL:MHPA:1,2017-04-04T22:00:00Z,30.6671,-87.9365,1.552,0.15,1111122 
DISL,ioos:station:DISL:MHPA:1,2017-04-04T22:30:00Z,30.6671,-87.9365,1.55,0.15,1111122 
DISL,ioos:station:DISL:MHPA:1,2017-04-04T23:00:00Z,30.6671,-87.9365,1.536,0.15,1111122 
DISL,ioos:station:DISL:MHPA:1,2017-04-04T23:30:00Z,30.6671,-87.9365,1.519,0.15,1111122 
DISL,ioos:station:DISL:MHPA:1,2017-04-05T00:00:00Z,30.6671,-87.9365,1.531,0.15,1111122 
DISL,ioos:station:DISL:MHPA:1,2017-04-05T00:30:00Z,30.6671,-87.9365,1.497,0.15,1111122 
DISL,ioos:station:DISL:MHPA:1,2017-04-05T01:00:00Z,30.6671,-87.9365,1.482,0.15,1111122 
DISL,ioos:station:DISL:MHPA:1,2017-04-05T01:30:00Z,30.6671,-87.9365,1.469,0.21,1111122 
DISL,ioos:station:DISL:MHPA:1,2017-04-05T02:00:00Z,30.6671,-87.9365,1.458,0.2,1111122 
DISL,ioos:station:DISL:MHPA:1,2017-04-05T02:30:00Z,30.6671,-87.9365,1.43,0.2,1111122 
DISL,ioos:station:DISL:MHPA:1,2017-04-05T03:00:00Z,30.6671,-87.9365,1.408,0.15,1111122 
DISL,ioos:station:DISL:MHPA:1,2017-04-05T03:30:00Z,30.6671,-87.9365,1.393,0.15,1111122 
DISL,ioos:station:DISL:MHPA:1,2017-04-05T04:00:00Z,30.6671,-87.9365,1.368,0.15,1111122 
DISL,ioos:station:DISL:MHPA:1,2017-04-05T04:30:00Z,30.6671,-87.9365,1.343,0.2,1111122 
DISL,ioos:station:DISL:MHPA:1,2017-04-05T05:00:00Z,30.6671,-87.9365,1.326,0.2,1111122 
DISL,ioos:station:DISL:MHPA:1,2017-04-05T05:30:00Z,30.6671,-87.9365,1.297,0.2,1111122 
DISL,ioos:station:DISL:MHPA:1,2017-04-05T06:00:00Z,30.6671,-87.9365,1.349,0.2,1111122 
DISL,ioos:station:DISL:MHPA:1,2017-04-05T06:30:00Z,30.6671,-87.9365,1.345,0.15,1111122 
DISL,ioos:station:DISL:MHPA:1,2017-04-05T07:00:00Z,30.6671,-87.9365,1.3,0.16,1111122 
DISL,ioos:station:DISL:MHPA:1,2017-04-05T07:30:00Z,30.6671,-87.9365,1.297,0.16,1111122 
DISL,ioos:station:DISL:MHPA:1,2017-04-05T08:00:00Z,30.6671,-87.9365,1.283,0.16,1111122 
DISL,ioos:station:DISL:MHPA:1,2017-04-05T08:30:00Z,30.6671,-87.9365,1.259,0.21,1111122 
DISL,ioos:station:DISL:MHPA:1,2017-04-05T09:00:00Z,30.6671,-87.9365,1.247,0.2,1111122 
DISL,ioos:station:DISL:MHPA:1,2017-04-05T09:30:00Z,30.6671,-87.9365,1.234,0.2,1111122 
DISL,ioos:station:DISL:MHPA:1,2017-04-05T10:00:00Z,30.6671,-87.9365,1.234,0.2,1111122 
DISL,ioos:station:DISL:MHPA:1,2017-04-05T10:30:00Z,30.6671,-87.9365,1.255,0.17,1111122 
DISL,ioos:station:DISL:MHPA:1,2017-04-05T11:00:00Z,30.6671,-87.9365,1.246,0.16,1111122 
DISL,ioos:station:DISL:MHPA:1,2017-04-05T11:30:00Z,30.6671,-87.9365,1.247,0.16,1111122 
DISL,ioos:station:DISL:MHPA:1,2017-04-05T12:00:00Z,30.6671,-87.9365,1.289,0.2,1111122 
DISL,ioos:station:DISL:MHPA:1,2017-04-05T12:30:00Z,30.6671,-87.9365,1.301,0.16,1111122 
DISL,ioos:station:DISL:MHPA:1,2017-04-05T13:00:00Z,30.6671,-87.9365,1.337,0.16,1111122 
DISL,ioos:station:DISL:MHPA:1,2017-04-05T13:30:00Z,30.6671,-87.9365,1.379,0.16,1111122 
DISL,ioos:station:DISL:MHPA:1,2017-04-05T14:00:00Z,30.6671,-87.9365,1.442,0.16,1111122 
DISL,ioos:station:DISL:MHPA:1,2017-04-05T14:30:00Z,30.6671,-87.9365,1.499,0.16,1111122 
DISL,ioos:station:DISL:MHPA:1,2017-04-05T15:00:00Z,30.6671,-87.9365,1.543,0.16,1111122 
DISL,ioos:station:DISL:MHPA:1,2017-04-05T15:30:00Z,30.6671,-87.9365,1.546,0.16,1111122 
DISL,ioos:station:DISL:MHPA:1,2017-04-05T16:00:00Z,30.6671,-87.9365,1.558,0.16,1111122 
DISL,ioos:station:DISL:MHPA:1,2017-04-05T16:30:00Z,30.6671,-87.9365,1.569,0.2,1111122 
DISL,ioos:station:DISL:MHPA:1,2017-04-05T17:00:00Z,30.6671,-87.9365,1.576,0.19,1111122 
DISL,ioos:station:DISL:MHPA:1,2017-04-05T17:30:00Z,30.6671,-87.9365,1.6,0.2,1111122 
DISL,ioos:station:DISL:MHPA:1,2017-04-05T18:00:00Z,30.6671,-87.9365,1.597,0.2,1111122 
DISL,ioos:station:DISL:MHPA:1,2017-04-05T18:30:00Z,30.6671,-87.9365,1.612,0.2,1111122 
DISL,ioos:station:DISL:MHPA:1,2017-04-05T19:30:00Z,30.6671,-87.9365,1.622,0.19,1111122 
DISL,ioos:station:DISL:MHPA:1,2017-04-05T20:00:00Z,30.6671,-87.9365,1.625,0.19,1111122 
DISL,ioos:station:DISL:MHPA:1,2017-04-05T20:30:00Z,30.6671,-87.9365,1.604,0.2,1111122 
DISL,ioos:station:DISL:MHPA:1,2017-04-05T21:00:00Z,30.6671,-87.9365,1.592,0.16,1111122 
DISL,ioos:station:DISL:MHPA:1,2017-04-05T21:30:00Z,30.6671,-87.9365,1.601,0.2,1111122 
DISL,ioos:station:DISL:MHPA:1,2017-04-05T22:00:00Z,30.6671,-87.9365,1.611,0.2,1111122 
DISL,ioos:station:DISL:MHPA:1,2017-04-05T22:30:00Z,30.6671,-87.9365,1.607,0.2,1111122 
DISL,ioos:station:DISL:MHPA:1,2017-04-05T23:00:00Z,30.6671,-87.9365,1.612,0.19,1111122 
DISL,ioos:station:DISL:MHPA:1,2017-04-05T23:30:00Z,30.6671,-87.9365,1.612,0.16,1111122 
DISL,ioos:station:DISL:MHPA:1,2017-04-06T00:00:00Z,30.6671,-87.9365,1.602,0.16,1111122 
DISL,ioos:station:DISL:MHPA:1,2017-04-06T00:30:00Z,30.6671,-87.9365,1.582,0.16,1111122 
DISL,ioos:station:DISL:MHPA:1,2017-04-06T01:00:00Z,30.6671,-87.9365,1.581,0.16,1111122 
DISL,ioos:station:DISL:MHPA:1,2017-04-06T01:30:00Z,30.6671,-87.9365,1.563,0.19,1111122 
DISL,ioos:station:DISL:MHPA:1,2017-04-06T02:00:00Z,30.6671,-87.9365,1.522,0.19,1111122 
DISL,ioos:station:DISL:MHPA:1,2017-04-06T02:30:00Z,30.6671,-87.9365,1.471,0.19,1111122 
DISL,ioos:station:DISL:MHPA:1,2017-04-06T03:00:00Z,30.6671,-87.9365,1.416,0.2,1111122 
DISL,ioos:station:DISL:MHPA:1,2017-04-06T03:30:00Z,30.6671,-87.9365,1.361,0.19,1111122 
DISL,ioos:station:DISL:MHPA:1,2017-04-06T04:00:00Z,30.6671,-87.9365,1.28,0.19,1111122 
DISL,ioos:station:DISL:MHPA:1,2017-04-06T04:30:00Z,30.6671,-87.9365,1.236,0.2,1111122 
DISL,ioos:station:DISL:MHPA:1,2017-04-06T05:00:00Z,30.6671,-87.9365,1.219,0.2,1111122 
DISL,ioos:station:DISL:MHPA:1,2017-04-06T05:30:00Z,30.6671,-87.9365,1.184,0.2,1111122 
DISL,ioos:station:DISL:MHPA:1,2017-04-06T06:00:00Z,30.6671,-87.9365,1.134,0.15,1111122 
DISL,ioos:station:DISL:MHPA:1,2017-04-06T06:30:00Z,30.6671,-87.9365,1.097,0.19,1111122 
DISL,ioos:station:DISL:MHPA:1,2017-04-06T07:00:00Z,30.6671,-87.9365,1.074,0.19,1111122 
DISL,ioos:station:DISL:MHPA:1,2017-04-06T07:30:00Z,30.6671,-87.9365,1.048,0.19,1111122 
DISL,ioos:station:DISL:MHPA:1,2017-04-06T08:00:00Z,30.6671,-87.9365,1.015,0.19,1111122 
DISL,ioos:station:DISL:MHPA:1,2017-04-06T08:30:00Z,30.6671,-87.9365,0.991,0.18,1111122 
DISL,ioos:station:DISL:MHPA:1,2017-04-06T09:00:00Z,30.6671,-87.9365,0.967,0.19,1111122 
DISL,ioos:station:DISL:MHPA:1,2017-04-06T09:30:00Z,30.6671,-87.9365,0.936,0.2,1111122 
DISL,ioos:station:DISL:MHPA:1,2017-04-06T10:00:00Z,30.6671,-87.9365,0.901,0.19,1111122 
DISL,ioos:station:DISL:MHPA:1,2017-04-06T10:30:00Z,30.6671,-87.9365,0.867,0.19,1111122 
DISL,ioos:station:DISL:MHPA:1,2017-04-06T11:00:00Z,30.6671,-87.9365,0.838,0.2,1111122 
DISL,ioos:station:DISL:MHPA:1,2017-04-06T11:30:00Z,30.6671,-87.9365,0.816,0.15,1111122 
DISL,ioos:station:DISL:MHPA:1,2017-04-06T12:00:00Z,30.6671,-87.9365,0.809,0.15,1111122 
DISL,ioos:station:DISL:MHPA:1,2017-04-06T12:30:00Z,30.6671,-87.9365,0.814,0.19,1111122 
DISL,ioos:station:DISL:MHPA:1,2017-04-06T13:00:00Z,30.6671,-87.9365,0.821,0.15,1111122 
DISL,ioos:station:DISL:MHPA:1,2017-04-06T13:30:00Z,30.6671,-87.9365,0.808,0.2,1111122 
DISL,ioos:station:DISL:MHPA:1,2017-04-06T14:00:00Z,30.6671,-87.9365,0.788,0.19,1111122 
DISL,ioos:station:DISL:MHPA:1,2017-04-06T14:30:00Z,30.6671,-87.9365,0.772,0.2,1111122 
DISL,ioos:station:DISL:MHPA:1,2017-04-06T15:00:00Z,30.6671,-87.9365,0.764,0.19,1111122 
DISL,ioos:station:DISL:MHPA:1,2017-04-06T15:30:00Z,30.6671,-87.9365,0.764,0.19,1111122 
DISL,ioos:station:DISL:MHPA:1,2017-04-06T16:00:00Z,30.6671,-87.9365,0.765,0.19,1111122 
DISL,ioos:station:DISL:MHPA:1,2017-04-06T16:30:00Z,30.6671,-87.9365,0.764,0.2,1111122 
DISL,ioos:station:DISL:MHPA:1,2017-04-06T17:00:00Z,30.6671,-87.9365,0.766,0.2,1111122 